• In Uzbekistan
  • List of Countries
  • For 7 days
  • Water Temperature
  • Weather Map
  • Weather Widgets
  • user-avatar
    Login

    Hourly Weather Cairo

    Today, 26 February, Wednesday

    Time Temperature Precipitation Wind Pressure Humidity
    00:00 +14°C° 0 mm 1 mps 761 mmHg 74%
    01:00 +14°C° 0 mm 1 mps 761 mmHg 76%
    02:00 +13°C° 0 mm 1 mps 760 mmHg 79%
    03:00 +13°C° 0 mm 1 mps 760 mmHg 79%
    04:00 +13°C° 0 mm 1 mps 760 mmHg 79%
    05:00 +13°C° 0 mm 1 mps 760 mmHg 79%
    06:00 +14°C° 0 mm 2 mps 760 mmHg 73%
    07:00 +14°C° 0 mm 3 mps 761 mmHg 67%
    08:00 +14°C° 0 mm 3 mps 761 mmHg 61%
    09:00 +17°C° 0 mm 4 mps 762 mmHg 55%
    10:00 +18°C° 0 mm 4 mps 762 mmHg 49%
    11:00 +20°C° 0 mm 4 mps 762 mmHg 43%
    12:00 +21°C° 0 mm 4 mps 761 mmHg 39%
    13:00 +22°C° 0 mm 4 mps 761 mmHg 36%
    14:00 +24°C° 0 mm 3 mps 760 mmHg 34%
    15:00 +24°C° 0 mm 2 mps 760 mmHg 33%
    16:00 +24°C° 0 mm 2 mps 760 mmHg 32%
    17:00 +24°C° 0 mm 1 mps 760 mmHg 32%
    18:00 +22°C° 0 mm 1 mps 760 mmHg 35%
    19:00 +21°C° 0 mm 1 mps 760 mmHg 38%
    20:00 +20°C° 0 mm 1 mps 761 mmHg 41%
    21:00 +19°C° 0 mm 1 mps 761 mmHg 45%
    22:00 +19°C° 0 mm 1 mps 761 mmHg 49%
    23:00 +17°C° 0 mm 2 mps 761 mmHg 54%

    Tomorrow, 27 February, Thursday

    Time Temperature Precipitation Wind Pressure Humidity
    00:00 +17°C° 0 mm 2 mps 761 mmHg 53%
    01:00 +17°C° 0 mm 2 mps 760 mmHg 52%
    02:00 +16°C° 0 mm 2 mps 760 mmHg 52%
    03:00 +16°C° 0 mm 1 mps 760 mmHg 51%
    04:00 +16°C° 0 mm 1 mps 760 mmHg 50%
    05:00 +16°C° 0 mm 1 mps 760 mmHg 49%
    06:00 +18°C° 0 mm 1 mps 760 mmHg 46%
    07:00 +17°C° 0 mm 2 mps 760 mmHg 43%
    08:00 +18°C° 0 mm 2 mps 761 mmHg 39%
    09:00 +20°C° 0 mm 2 mps 761 mmHg 35%
    10:00 +22°C° 0 mm 3 mps 761 mmHg 31%
    11:00 +24°C° 0 mm 3 mps 761 mmHg 27%
    12:00 +25°C° 0 mm 3 mps 760 mmHg 25%
    13:00 +26°C° 0 mm 3 mps 760 mmHg 24%
    14:00 +27°C° 0 mm 3 mps 759 mmHg 22%
    15:00 +27°C° 0 mm 2 mps 759 mmHg 22%
    16:00 +26°C° 0 mm 2 mps 759 mmHg 22%
    17:00 +26°C° 0 mm 2 mps 759 mmHg 23%
    18:00 +25°C° 0 mm 2 mps 759 mmHg 25%
    19:00 +24°C° 0 mm 1 mps 759 mmHg 28%
    20:00 +22°C° 0 mm 1 mps 759 mmHg 30%
    21:00 +22°C° 0 mm 1 mps 759 mmHg 32%
    22:00 +20°C° 0 mm 2 mps 759 mmHg 35%
    23:00 +20°C° 0 mm 2 mps 759 mmHg 37%

    Day after tomorrow, 28 February, Friday

    Time Temperature Precipitation Wind Pressure Humidity
    00:00 +20°C° 0 mm 1 mps 758 mmHg 39%
    01:00 +19°C° 0 mm 1 mps 758 mmHg 42%
    02:00 +19°C° 0 mm 1 mps 758 mmHg 44%
    03:00 +18°C° 0 mm 1 mps 758 mmHg 45%
    04:00 +16°C° 0 mm 0 mps 758 mmHg 45%
    05:00 +16°C° 0 mm 0 mps 758 mmHg 46%
    06:00 +17°C° 0 mm 0 mps 758 mmHg 43%
    07:00 +18°C° 0 mm 0 mps 758 mmHg 39%
    08:00 +19°C° 0 mm 0 mps 758 mmHg 36%
    09:00 +23°C° 0 mm 1 mps 758 mmHg 32%
    10:00 +24°C° 0 mm 1 mps 758 mmHg 27%
    11:00 +26°C° 0 mm 2 mps 758 mmHg 23%
    12:00 +27°C° 0 mm 3 mps 758 mmHg 21%
    13:00 +28°C° 0 mm 3 mps 757 mmHg 19%
    14:00 +28°C° 0 mm 4 mps 757 mmHg 17%
    15:00 +28°C° 0 mm 5 mps 757 mmHg 18%
    16:00 +27°C° 0 mm 5 mps 757 mmHg 19%
    17:00 +27°C° 0 mm 6 mps 757 mmHg 20%
    18:00 +23°C° 0 mm 6 mps 757 mmHg 35%
    19:00 +21°C° 0 mm 6 mps 758 mmHg 51%
    20:00 +17°C° 0 mm 7 mps 758 mmHg 66%
    21:00 +16°C° 0 mm 6 mps 759 mmHg 72%
    22:00 +15°C° 0 mm 6 mps 759 mmHg 77%
    23:00 +14°C° 0 mm 5 mps 760 mmHg 83%

    29 February, Saturday

    Time Temperature Precipitation Wind Pressure Humidity
    00:00 +14°C° 0 mm 5 mps 759 mmHg 83%
    01:00 +13°C° 0 mm 4 mps 759 mmHg 83%
    02:00 +13°C° 0 mm 3 mps 759 mmHg 83%
    03:00 +13°C° 0 mm 3 mps 759 mmHg 83%
    04:00 +12°C° 0 mm 3 mps 759 mmHg 82%
    05:00 +13°C° 0 mm 2 mps 759 mmHg 82%
    06:00 +13°C° 0 mm 3 mps 760 mmHg 77%
    07:00 +13°C° 0 mm 3 mps 760 mmHg 73%
    08:00 +14°C° 0 mm 3 mps 760 mmHg 68%
    09:00 +15°C° 0 mm 4 mps 760 mmHg 60%
    10:00 +17°C° 0 mm 4 mps 760 mmHg 53%
    11:00 +19°C° 0 mm 4 mps 760 mmHg 45%
    12:00 +19°C° 0 mm 5 mps 760 mmHg 42%
    13:00 +20°C° 0 mm 5 mps 759 mmHg 40%
    14:00 +21°C° 0 mm 6 mps 759 mmHg 37%
    15:00 +21°C° 0 mm 6 mps 759 mmHg 40%
    16:00 +20°C° 0 mm 6 mps 759 mmHg 42%
    17:00 +19°C° 0 mm 6 mps 759 mmHg 45%
    18:00 +19°C° 0 mm 5 mps 760 mmHg 49%
    19:00 +17°C° 0 mm 5 mps 760 mmHg 53%
    20:00 +17°C° 0 mm 4 mps 760 mmHg 58%
    21:00 +15°C° 0 mm 4 mps 761 mmHg 63%
    22:00 +14°C° 0 mm 4 mps 761 mmHg 68%
    23:00 +14°C° 0 mm 3 mps 761 mmHg 73%

    1 March, Sunday

    Time Temperature Precipitation Wind Pressure Humidity
    00:00 +13°C° 0 mm 3 mps 761 mmHg 76%
    01:00 +14°C° 0 mm 2 mps 761 mmHg 79%
    02:00 +13°C° 0 mm 2 mps 760 mmHg 81%
    03:00 +13°C° 0 mm 2 mps 760 mmHg 83%
    04:00 +13°C° 0 mm 2 mps 760 mmHg 84%
    05:00 +12°C° 0 mm 2 mps 760 mmHg 86%
    06:00 +13°C° 0 mm 2 mps 761 mmHg 83%
    07:00 +13°C° 0 mm 2 mps 761 mmHg 81%
    08:00 +14°C° 0 mm 2 mps 761 mmHg 78%
    09:00 +16°C° 0 mm 2 mps 761 mmHg 69%
    10:00 +17°C° 0 mm 2 mps 761 mmHg 59%
    11:00 +19°C° 0 mm 3 mps 761 mmHg 50%
    12:00 +20°C° 0 mm 3 mps 761 mmHg 44%
    13:00 +21°C° 0 mm 3 mps 760 mmHg 38%
    14:00 +24°C° 0 mm 3 mps 760 mmHg 32%
    15:00 +23°C° 0 mm 4 mps 760 mmHg 31%
    16:00 +23°C° 0 mm 5 mps 760 mmHg 31%
    17:00 +23°C° 0 mm 6 mps 760 mmHg 30%
    18:00 +21°C° 0 mm 6 mps 760 mmHg 36%
    19:00 +17°C° 0 mm 6 mps 761 mmHg 42%
    20:00 +15°C° 0 mm 6 mps 761 mmHg 48%
    21:00 +14°C° 0 mm 5 mps 761 mmHg 54%
    22:00 +14°C° 0 mm 4 mps 761 mmHg 60%
    23:00 +13°C° 0 mm 4 mps 761 mmHg 66%

    2 March, Monday

    Time Temperature Precipitation Wind Pressure Humidity
    00:00 +12°C° 0 mm 3 mps 761 mmHg 68%
    01:00 +12°C° 0 mm 3 mps 761 mmHg 70%
    02:00 +11°C° 0 mm 3 mps 761 mmHg 73%
    03:00 +11°C° 0 mm 3 mps 761 mmHg 74%
    04:00 +11°C° 0 mm 3 mps 761 mmHg 75%
    05:00 +10°C° 0 mm 3 mps 760 mmHg 76%
    06:00 +11°C° 0 mm 3 mps 761 mmHg 74%
    07:00 +11°C° 0 mm 3 mps 761 mmHg 72%
    08:00 +12°C° 0 mm 3 mps 761 mmHg 69%
    09:00 +14°C° 0 mm 4 mps 761 mmHg 60%
    10:00 +17°C° 0 mm 4 mps 761 mmHg 51%
    11:00 +19°C° 0 mm 4 mps 761 mmHg 42%
    12:00 +20°C° 0 mm 4 mps 760 mmHg 37%
    13:00 +22°C° 0 mm 4 mps 759 mmHg 31%
    14:00 +23°C° 0 mm 4 mps 759 mmHg 26%
    15:00 +23°C° 0 mm 4 mps 759 mmHg 26%
    16:00 +23°C° 0 mm 4 mps 759 mmHg 26%
    17:00 +23°C° 0 mm 4 mps 759 mmHg 26%
    18:00 +21°C° 0 mm 5 mps 759 mmHg 34%
    19:00 +19°C° 0 mm 5 mps 759 mmHg 42%
    20:00 +16°C° 0 mm 6 mps 759 mmHg 51%
    21:00 +16°C° 0 mm 6 mps 760 mmHg 55%
    22:00 +15°C° 0 mm 5 mps 760 mmHg 59%
    23:00 +14°C° 0 mm 5 mps 760 mmHg 64%
    Show more